| time (UTC) | temp C | wind direction | speed KPH | gust KPH | rain 1hr cm | rain 24hr cm | rain mn cm | humidity % | barometer mb |
| 20260503220032 | 28 | 37 | 4.8 | 16.1 | 0.00 | 0.00 | 0.00 | 26 | 1015.2 |
| 20260503214535 | 28 | 43 | 6.4 | 17.7 | 0.00 | 0.00 | 0.00 | 26 | 1015.4 |
| 20260503211607 | 27 | 53 | 6.4 | 14.5 | 0.00 | 0.00 | 0.00 | 28 | 1015.6 |
| 20260503210032 | 27 | 46 | 8.0 | 19.3 | 0.00 | 0.00 | 0.00 | 28 | 1015.8 |
| 20260503204532 | 27 | 51 | 9.7 | 27.4 | 0.00 | 0.00 | 0.00 | 27 | 1016.0 |
| 20260503203032 | 27 | 90 | 8.0 | 22.5 | 0.00 | 0.00 | 0.00 | 28 | 1016.2 |
| 20260503200149 | 26 | 50 | 8.0 | 25.7 | 0.00 | 0.00 | 0.00 | 28 | 1016.5 |
| 20260503193033 | 27 | 81 | 8.0 | 20.9 | 0.00 | 0.00 | 0.00 | 29 | 1016.8 |
| 20260503190035 | 27 | 122 | 4.8 | 12.9 | 0.00 | 0.00 | 0.00 | 30 | 1016.9 |
| 20260503184530 | 26 | 84 | 8.0 | 20.9 | 0.00 | 0.00 | 0.00 | 34 | 1017.1 |
| 20260503183028 | 25 | 234 | 4.8 | 12.9 | 0.00 | 0.00 | 0.00 | 40 | 1017.2 |
| 20260503180031 | 23 | 291 | 4.8 | 11.3 | 0.00 | 0.00 | 0.00 | 43 | 1017.4 |
| 20260503174638 | 22 | 324 | 6.4 | 11.3 | 0.00 | 0.00 | 0.00 | 45 | 1017.5 |
| 20260503171534 | 21 | 335 | 6.4 | 11.3 | 0.00 | 0.00 | 0.00 | 45 | 1017.7 |
| 20260503071531 | 12 | 140 | 6.4 | 12.9 | 0.00 | 0.00 | 0.00 | 68 | 1017.9 |
| 20260503054531 | 13 | 141 | 4.8 | 8.0 | 0.00 | 0.00 | 0.00 | 67 | 1017.7 |
| 20260503053030 | 14 | 81 | 1.6 | 8.0 | 0.00 | 0.00 | 0.00 | 65 | 1017.7 |
| 20260503051530 | 15 | 114 | 0.0 | 4.8 | 0.00 | 0.00 | 0.00 | 62 | 1017.6 |
| 20260503050034 | 15 | 148 | 4.8 | 8.0 | 0.00 | 0.00 | 0.00 | 62 | 1017.5 |
| 20260503044530 | 16 | 141 | 3.2 | 9.7 | 0.00 | 0.00 | 0.00 | 61 | 1017.6 |
| 20260503034607 | 17 | 132 | 4.8 | 9.7 | 0.00 | 0.00 | 0.00 | 56 | 1017.0 |
| 20260503033030 | 18 | 138 | 4.8 | 11.3 | 0.00 | 0.00 | 0.00 | 56 | 1016.8 |
| 20260503031532 | 18 | 146 | 4.8 | 9.7 | 0.00 | 0.00 | 0.00 | 55 | 1016.6 |
| 20260503030036 | 19 | 148 | 4.8 | 8.0 | 0.00 | 0.00 | 0.00 | 54 | 1016.3 |
| 20260503024529 | 20 | 133 | 4.8 | 6.4 | 0.00 | 0.00 | 0.00 | 52 | 1016.1 |
| 20260503023035 | 21 | 141 | 3.2 | 4.8 | 0.00 | 0.00 | 0.00 | 49 | 1016.0 |
| 20260503021607 | 22 | 141 | 3.2 | 6.4 | 0.00 | 0.00 | 0.00 | 44 | 1015.9 |
| 20260503020031 | 22 | 191 | 3.2 | 6.4 | 0.00 | 0.00 | 0.00 | 40 | 1015.8 |
| 20260503014532 | 23 | 298 | 1.6 | 8.0 | 0.00 | 0.00 | 0.00 | 38 | 1015.9 |
| 20260503013033 | 23 | 208 | 0.0 | 4.8 | 0.00 | 0.00 | 0.00 | 36 | 1015.9 |
| 20260503011649 | 24 | 93 | 3.2 | 12.9 | 0.00 | 0.00 | 0.00 | 35 | 1015.9 |
| 20260503010033 | 25 | 35 | 4.8 | 12.9 | 0.00 | 0.00 | 0.00 | 33 | 1015.9 |
| 20260503004529 | 25 | 201 | 1.6 | 12.9 | 0.00 | 0.00 | 0.00 | 33 | 1015.8 |
| 20260503003029 | 25 | 87 | 1.6 | 16.1 | 0.00 | 0.00 | 0.00 | 33 | 1015.8 |
| 20260503001532 | 25 | 95 | 8.0 | 22.5 | 0.00 | 0.00 | 0.00 | 32 | 1015.9 |
| 20260503000038 | 26 | 95 | 4.8 | 14.5 | 0.00 | 0.00 | 0.00 | 32 | 1016.0 |
| 20260502234537 | 25 | 91 | 4.8 | 20.9 | 0.00 | 0.00 | 0.00 | 32 | 1016.2 |
| 20260502233038 | 25 | 55 | 8.0 | 17.7 | 0.00 | 0.00 | 0.00 | 31 | 1016.2 |
| 20260502231531 | 26 | 7 | 8.0 | 20.9 | 0.00 | 0.00 | 0.00 | 31 | 1016.3 |
| 20260502230044 | 25 | 50 | 8.0 | 24.1 | 0.00 | 0.00 | 0.00 | 31 | 1016.6 |
| 20260502223108 | 25 | 67 | 8.0 | 17.7 | 0.00 | 0.00 | 0.00 | 31 | 1016.9 |
| 20260502221529 | 25 | 52 | 12.9 | 29.0 | 0.00 | 0.00 | 0.00 | 32 | 1016.9 |